Regional Weather Roundup
Issued by NWS

Home | Current Version | Previous Version | Graphics & Text | Print | Product List | Glossary On
Versions: 1 2 3 4 5 6 7 8 9 10 11 12 13 14 15 16 17 18 19 20 21 22 23 24 25 26 27 28 29 30 31 32 33 34 35 36 37 38 39 40 41 42 43 44 45 46 47 48 49 50
703
ASUS43 KLOT 240008
RWRIL

ILLINOIS REGIONAL WEATHER ROUNDUP
NATIONAL WEATHER SERVICE CHICAGO/ROMEOVILLE IL
600 PM CST TUE JAN 23 2018

NOTE: "FAIR" INDICATES FEW OR NO CLOUDS BELOW 12,000 FEET WITH NO
SIGNIFICANT WEATHER AND/OR OBSTRUCTIONS TO VISIBILITY.

* THESE STATIONS ARE NOT UNDER NWS QUALITY CONTROL. THEY ALSO MAY NOT
  REPORT WEATHER SUCH AS PRECIPITATION OR FOG.

ILZ001-002-007-009-015-016-024-240100-
NORTHWEST ILLINOIS

CITY           SKY/WX    TMP DP  RH WIND       PRES   REMARKS
MOLINE         CLOUDY    29  21  72 NW13      30.13R WCI  19
6HR MIN TEMP:  29; 6HR MAX TEMP:  32;

STERLING*      CLOUDY    27  24  89 NW13      30.12R WCI  16
SAVANNA*       CLOUDY    26  22  84 NW10      30.13R WCI  17
$$

ILZ003-004-008-010-011-017-018-240100-
NORTH CENTRAL ILLINOIS

CITY           SKY/WX    TMP DP  RH WIND       PRES   REMARKS
ROCKFORD       CLOUDY    28  23  81 NW13      30.10R WCI  17
6HR MIN TEMP:  28; 6HR MAX TEMP:  31;

FREEPORT*      CLOUDY    27  24  88 NW12      30.11R WCI  16
ROCHELLE*      CLOUDY    29  26  88 NW10G16   30.10R WCI  20
DE KALB*       CLOUDY    29  26  88 NW13      30.08R WCI  18
PERU*          CLOUDY    28  24  84 W13G18    30.12R WCI  18
$$

ILZ005-006-012>014-019>023-240100-
NORTHEAST ILLINOIS

CITY           SKY/WX    TMP DP  RH WIND       PRES   REMARKS
CHICAGO-OHARE  CLOUDY    30  22  72 NW15      30.06R WCI  19
6HR MIN TEMP:  30; 6HR MAX TEMP:  31; 6HR PCP: TRACE;

CHICAGO-MIDWAY CLOUDY    30  24  78 NW14      30.07R WCI  19
6HR MIN TEMP:  30; 6HR MAX TEMP:  31; 6HR PCP: TRACE;

AURORA         CLOUDY    30  25  81 NW13      30.08R WCI  20
6HR MIN TEMP:  30; 6HR MAX TEMP:  32;

LANSING*       CLOUDY    30  27  86 NW9       30.07R WCI  22
JOLIET*        CLOUDY    32  27  83 NW8       30.09R WCI  25
WAUKEGAN       CLOUDY    28  24  85 NW7       30.06R WCI  21
6HR MIN TEMP:  28; 6HR MAX TEMP:  29;

DUPAGE AIRPORT CLOUDY    28  24  85 NW14      30.07R WCI  17
6HR MIN TEMP:  28; 6HR MAX TEMP:  30;

KANKAKEE*      CLOUDY   N/A N/A N/A NW6       30.08R
WHEELING       CLOUDY    30  24  78 NW9       30.08R WCI  22
6HR MIN TEMP:  30; 6HR MAX TEMP:  31;

MORRIS*        CLOUDY    31  26  80 NW12G17   30.08R WCI  22
ROMEOVILLE*    CLOUDY    30  26  84 N14       30.07R WCI  20
NORTHERLY ISL    N/A     30  23  75 W14         N/A  WCI  20
$$

LMZ740>746-240100-
SOUTHERN LAKE MICHIGAN

STATION/POSITION SKY/WX   TEMP    WIND        PRES    VSBY  WAVE
                          AIR SEA DIR/SP/G                  HT/PER
                          (F)     (DEG/KT/KT) (MB)    (MI)  (FT/S)
HARRISON CRIB              31     330/ 16/ 17   N/A
BURNHAM HARBOR             30     270/ 12/ 17   N/A
CALUMET HARBOR             30     310/  8/ 12 1017.2R
BURNS HARBOR               30     320/ 15/ 20 1018.3R
MICHIGAN CITY              30     290/ 19/ 21   N/A
$$

ILZ025>027-034>036-040-047-049-050-058-095>099-240100-
WEST-CENTRAL ILLINOIS

CITY           SKY/WX    TMP DP  RH WIND       PRES   REMARKS
QUINCY         CLOUDY    31  24  75 W14       30.17R WCI  21
GALESBURG*     CLOUDY    31  25  80 W15       30.14R WCI  20
MACOMB*        CLOUDY    30  25  79 W16       30.18R WCI  19
JACKSONVILLE*  CLOUDY    31  26  81 W15       30.17R WCI  21
PITTSFIELD*    CLOUDY    32  26  77 W13G21    30.18R WCI  23
$$

ILZ028>032-037-038-041>044-048-051>054-059>061-240100-
CENTRAL ILLINOIS

CITY           SKY/WX    TMP DP  RH WIND       PRES   REMARKS
PONTIAC        CLOUDY    31  30  96 NW14      30.11R WCI  21
BLOOMINGTON    CLOUDY    30  26  85 NW14      30.11R WCI  19
DECATUR        CLOUDY    32  27  81 NW15G23   30.13R WCI  22
PEORIA         CLOUDY    31  23  72 NW6       30.13R WCI  25
6HR MIN TEMP:  31; 6HR MAX TEMP:  33;

LACON*         CLOUDY    29  24  82 NW14      30.13R WCI  18
LINCOLN*       CLOUDY    32  26  80 NW10G17   30.14R WCI  24
SPRINGFIELD    CLOUDY    32  25  75 NW14      30.15R WCI  22
6HR MIN TEMP:  32; 6HR MAX TEMP:  35;

TAYLORVILLE    CLOUDY    32  27  82 NW12      30.15R WCI  23
6HR MIN TEMP:  32; 6HR MAX TEMP:  32;

$$

ILZ033-039-045-046-055>057-062-063-240100-
EAST-CENTRAL ILLINOIS

CITY           SKY/WX    TMP DP  RH WIND       PRES   REMARKS
CHAMPAIGN      CLOUDY    32  28  85 NW21G28   30.10R WCI  20
DANVILLE*      CLOUDY    31  27  84 NW9       30.06R WCI  23
RANTOUL*       CLOUDY    33  31  92 NW14      30.10R WCI  23
MATTOON        CLOUDY    32  28  85 NW16      30.11R WCI  21
PARIS*         CLOUDY    32  30  93 W9        30.11R WCI  24
$$

ILZ079-100>102-240100-
SOUTHWEST ILLINOIS

CITY           SKY/WX    TMP DP  RH WIND       PRES   REMARKS
ALTON          CLOUDY    34  28  80 W8        30.19R WCI  27
BELLEVILLE       N/A     36  26  68 W14       30.18R WCI  27
CAHOKIA*       CLOUDY    36  26  67 W7        30.20R WCI  30
SPARTA*        CLOUDY    36  30  80 W8        30.21R WCI  29
$$

ILZ064>066-069>071-074>076-080>082-084>086-088>090-092>094-240100-
SOUTH-CENTRAL ILLINOIS

CITY           SKY/WX    TMP DP  RH WIND       PRES   REMARKS
CARBONDALE     CLOUDY    37  28  70 NW3       30.20R
6HR MIN TEMP:  36; 6HR MAX TEMP:  37;

CAIRO*         CLOUDY    38  30  74 CALM      30.21R
EFFINGHAM*     CLOUDY    33  30  88 W15       30.16R WCI  23
MARION         CLOUDY    36  27  69 W7        30.20R WCI  30
MT. VERNON     CLOUDY    35  28  75 CALM      30.19R
CENTRALIA*     CLOUDY    35  30  83 NW7       30.18R WCI  29
SALEM*         CLOUDY    35  29  77 NW9G17    30.17R WCI  28
METROPOLIS*    CLOUDY    38  28  67 NW3       30.22R
$$

ILZ067-068-072-073-078-083-087-091-240100-
SOUTHEAST ILLINOIS

CITY           SKY/WX    TMP DP  RH WIND       PRES   REMARKS
LAWRENCEVILLE  CLOUDY    34  28  79 W9        30.15R WCI  27
FLORA*         CLOUDY    35  29  79 NW15      30.17R WCI  26
FAIRFIELD*     CLOUDY    35  28  77 W6        30.17R WCI  30
HARRISBURG*    CLOUDY    36  29  75 W9        30.20R WCI  29
ROBINSON*      CLOUDY    32  30  92 NW13      30.15R WCI  22
CARMI*         CLOUDY    34  29  81 W9        30.18R WCI  27
$$

ABBREVIATIONS USED IN REMARKS
   TC - TEMPERATURE IN CELSIUS
  WCI - WIND CHILL INDEX
   HX - HEAT INDEX
  VSB - VISIBILITY
$$





USA.gov is the U.S. government's official web portal to all federal, state and local government web resources and services.